Regional Weather Roundup
Issued by NWS

Home | Current Version | Previous Version | Text Only | Print | Product List | Glossary Off
Versions: 1 2 3 4 5 6 7 8 9 10 11 12 13 14 15 16 17 18 19 20 21 22 23 24 25 26 27 28 29 30 31 32 33 34 35 36 37 38 39 40 41 42 43 44 45 46 47 48 49 50

000
ASUS43 KTOP 222359
RWRKS

WEATHER ROUNDUP FOR KANSAS
NATIONAL WEATHER SERVICE GOODLAND KS
700 PM CDT TUE APR 22 2014

NOTE:  "FAIR" INDICATES FEW OR NO CLOUDS BELOW 12,000 FEET WITH NO
SIGNIFICANT WEATHER AND/OR OBSTRUCTIONS TO VISIBILITY.

KSZ001>006-013>018-027>032-041>047-230100-
NORTHWEST KANSAS

CITY           SKY/WX    TMP DP  RH WIND       PRES   REMARKS
GOODLAND       PTSUNNY   77  43  29 S37G45    29.74F
6HR MIN TEMP:  71; 6HR MAX TEMP:  82;

HAYS           PTSUNNY  N/A N/A N/A S21       29.87F
HILL CITY      MOSUNNY   74  38  27 S15G30    29.84F
6HR MIN TEMP:  68; 6HR MAX TEMP:  78;

RUSSELL        MOSUNNY   73  31  21 SE18G28   29.89F
6HR MIN TEMP:  71; 6HR MAX TEMP:  83;

$$

KSZ061>065-074>080-084>089-230100-
SOUTHWEST KANSAS

CITY           SKY/WX    TMP DP  RH WIND       PRES   REMARKS
DODGE CITY     MOSUNNY   75  38  26 S24G33    29.87F
6HR MIN TEMP:  67; 6HR MAX TEMP:  78;

ELKHART          N/A     82  41  23 S22         N/A
GARDEN CITY    SUNNY     77  43  29 S23G35    29.82F
6HR MIN TEMP:  71; 6HR MAX TEMP:  81;

GREAT BEND     PTSUNNY   73  30  20 SE21G30   29.90F
LIBERAL        SUNNY     81  41  24 S24G30    29.85F
$$

KSZ066>073-081>083-090>101-230100-
SOUTHEAST KANSAS

CITY           SKY/WX    TMP DP  RH WIND       PRES   REMARKS
CHANUTE        SUNNY     70  36  28 NE7       29.99F
6HR MIN TEMP:  67; 6HR MAX TEMP:  73;

COFFEYVILLE    SUNNY     72  32  23 E7        29.97F
6HR MIN TEMP:  69; 6HR MAX TEMP:  75;

HUTCHINSON     SUNNY     73  31  21 S14       29.93F
6HR MIN TEMP:  72; 6HR MAX TEMP:  78;

NEWTON         SUNNY     72  30  21 SE12      29.98F
PARSONS        SUNNY     72  27  18 VRB5      29.99F
6HR MIN TEMP:  69; 6HR MAX TEMP:  75;

WICHITA INTL   PTSUNNY   72  30  21 SE13      29.94F
6HR MIN TEMP:  71; 6HR MAX TEMP:  76;

WICHITA JABRA  SUNNY     71  32  23 SE13      29.95F
6HR MIN TEMP:  71; 6HR MAX TEMP:  75;

WINFIELD       SUNNY     73  30  20 SE8       29.96F
6HR MIN TEMP:  71; 6HR MAX TEMP:  77;

$$

KSZ007>012-019>026-033>040-048>060-102>105-230100-
NORTHEAST KANSAS

CITY           SKY/WX    TMP DP  RH WIND       PRES   REMARKS
CONCORDIA      PTSUNNY   72  30  21 SE17      29.92F
6HR MIN TEMP:  68; 6HR MAX TEMP:  75;

EMPORIA        SUNNY     69  30  23 E9        29.97F
6HR MIN TEMP:  64; 6HR MAX TEMP:  72;

LAWRENCE       SUNNY     70  32  24 VRB3      29.99F
6HR MIN TEMP:  65; 6HR MAX TEMP:  72;

MANHATTAN      MOSUNNY   71  33  24 SE10      29.95F
6HR MIN TEMP:  66; 6HR MAX TEMP:  74;

OLATHE IND     SUNNY     68  30  24 SE7       30.00F
6HR MIN TEMP:  64; 6HR MAX TEMP:  71;

OLATHE EXE     SUNNY     67  30  25 CALM      29.99F
6HR MIN TEMP:  63; 6HR MAX TEMP:  70;

SALINA         SUNNY     74  30  19 SE14      29.93F
6HR MIN TEMP:  71; 6HR MAX TEMP:  79;

TOPEKA BILLARD SUNNY     71  33  24 E8        29.98F
6HR MIN TEMP:  65; 6HR MAX TEMP:  74;

TOPEKA FORBES  SUNNY     69  32  25 E8        29.98F
6HR MIN TEMP:  64; 6HR MAX TEMP:  72;

$$



USA.gov is the U.S. government's official web portal to all federal, state and local government web resources and services.